PGT1794 ESSA-LTFJ

Flight info

Callsign PGT1794
Flight time 3h 7m
Altitude 37000
Route BABAP T316 NEPVA DCT PENOR N133 LENOV DCT RAZEC DCT KEKED DCT BADOR DCT CONWI DCT LAMIT DCT TIMUR L606 ADORU UM19 IBODU
Aircraft A320/M-SDE3FGHIRWY/LB1

Departure

Time 2026-05-05 18:14
Airport Stockholm-Arlanda Airport (ESSA)

Arrival

Time 2026-05-05 21:22
Airport Istanbul Sabiha Gökçen International Airport (LTFJ)
Time Latitude Longitude Altitude Speed Heading
2026-05-05 17:47 59.65397 17.93534 138 ft 0 kts 75°
2026-05-05 18:01 59.65395 17.93522 137 ft 2 kts 75°
2026-05-05 18:01 59.65391 17.93489 137 ft 2 kts 75°
2026-05-05 18:01 59.65386 17.93456 137 ft 2 kts 75°
2026-05-05 18:01 59.65382 17.93423 137 ft 2 kts 63°
2026-05-05 18:02 59.65370 17.93401 137 ft 2 kts 351°
2026-05-05 18:02 59.65365 17.93402 137 ft 0 kts 326°
2026-05-05 18:04 59.65371 17.93393 137 ft 4 kts 327°
2026-05-05 18:05 59.65414 17.93356 137 ft 11 kts 342°
2026-05-05 18:05 59.65483 17.93339 137 ft 9 kts 356°
2026-05-05 18:05 59.65520 17.93272 137 ft 7 kts 284°
2026-05-05 18:05 59.65512 17.93155 138 ft 13 kts 257°
2026-05-05 18:06 59.65487 17.92974 138 ft 13 kts 253°
2026-05-05 18:06 59.65469 17.92868 138 ft 12 kts 249°
2026-05-05 18:06 59.65423 17.92694 138 ft 12 kts 236°
2026-05-05 18:06 59.65354 17.92536 138 ft 15 kts 220°
2026-05-05 18:07 59.65273 17.92435 138 ft 13 kts 205°
2026-05-05 18:07 59.65192 17.92386 137 ft 12 kts 192°
2026-05-05 18:07 59.65116 17.92356 137 ft 10 kts 191°
2026-05-05 18:07 59.65038 17.92326 137 ft 11 kts 191°
2026-05-05 18:08 59.64966 17.92298 137 ft 9 kts 191°
2026-05-05 18:08 59.64893 17.92271 137 ft 14 kts 190°
2026-05-05 18:08 59.64798 17.92237 137 ft 13 kts 190°
2026-05-05 18:08 59.64717 17.92209 137 ft 11 kts 189°
2026-05-05 18:09 59.64645 17.92183 137 ft 10 kts 190°
2026-05-05 18:09 59.64581 17.92161 137 ft 8 kts 190°
2026-05-05 18:09 59.64510 17.92136 137 ft 13 kts 190°
2026-05-05 18:09 59.64414 17.92103 137 ft 14 kts 190°
2026-05-05 18:10 59.64341 17.92023 137 ft 11 kts 244°
2026-05-05 18:10 59.64309 17.91914 138 ft 8 kts 217°
2026-05-05 18:10 59.64242 17.91875 138 ft 15 kts 191°
2026-05-05 18:10 59.64142 17.91838 138 ft 14 kts 190°
2026-05-05 18:11 59.64055 17.91806 138 ft 12 kts 190°
2026-05-05 18:11 59.63982 17.91779 138 ft 10 kts 190°
2026-05-05 18:11 59.63891 17.91745 138 ft 13 kts 194°
2026-05-05 18:11 59.63819 17.91675 138 ft 10 kts 217°
2026-05-05 18:12 59.63786 17.91621 138 ft 3 kts 220°
2026-05-05 18:12 59.63780 17.91611 139 ft 2 kts 220°
2026-05-05 18:12 59.63733 17.91509 140 ft 11 kts 247°
2026-05-05 18:12 59.63742 17.91405 146 ft 9 kts 303°
2026-05-05 18:13 59.63821 17.91354 145 ft 13 kts
2026-05-05 18:13 59.63917 17.91388 145 ft 18 kts 10°
2026-05-05 18:13 59.64295 17.91530 142 ft 95 kts 11°
2026-05-05 18:13 59.65170 17.91850 143 ft 157 kts 10°
2026-05-05 18:14 59.66372 17.92279 475 ft 183 kts 11°
2026-05-05 18:14 59.67672 17.92742 1242 ft 195 kts
2026-05-05 18:14 59.69043 17.93237 1882 ft 203 kts
2026-05-05 18:14 59.70443 17.93747 2592 ft 206 kts
2026-05-05 18:15 59.71862 17.94260 3305 ft 208 kts
2026-05-05 18:15 59.73295 17.94779 3993 ft 211 kts
2026-05-05 18:15 59.74719 17.95631 4631 ft 223 kts 28°
2026-05-05 18:15 59.75759 17.98116 4891 ft 253 kts 69°
2026-05-05 18:16 59.76037 18.01715 5278 ft 274 kts 89°
2026-05-05 18:16 59.75923 18.05547 5982 ft 281 kts 95°
2026-05-05 18:16 59.75707 18.09433 6748 ft 285 kts 96°
2026-05-05 18:16 59.75508 18.13367 7503 ft 288 kts 95°
2026-05-05 18:17 59.75342 18.17356 8257 ft 292 kts 98°
2026-05-05 18:17 59.74705 18.21165 8971 ft 295 kts 123°
2026-05-05 18:17 59.73360 18.24124 9696 ft 294 kts 148°
2026-05-05 18:17 59.71526 18.25794 10341 ft 292 kts 170°
2026-05-05 18:18 59.69468 18.26679 10508 ft 314 kts 173°
2026-05-05 18:18 59.67243 18.27545 10642 ft 337 kts 173°
2026-05-05 18:18 59.64864 18.28445 10775 ft 357 kts 173°
2026-05-05 18:18 59.62373 18.29399 11077 ft 371 kts 173°
2026-05-05 18:19 59.59821 18.30401 11653 ft 376 kts 173°
2026-05-05 18:19 59.57253 18.31430 12265 ft 379 kts 173°
2026-05-05 18:19 59.54655 18.32476 12874 ft 383 kts 173°
2026-05-05 18:19 59.52035 18.33528 13466 ft 386 kts 174°
2026-05-05 18:20 59.49389 18.34587 14017 ft 389 kts 174°
2026-05-05 18:20 59.46724 18.35653 14527 ft 392 kts 175°
2026-05-05 18:20 59.44039 18.36720 14973 ft 395 kts 176°
2026-05-05 18:20 59.41327 18.37786 15443 ft 398 kts 177°
2026-05-05 18:21 59.38612 18.38847 15949 ft 400 kts 177°
2026-05-05 18:21 59.35872 18.39920 16445 ft 402 kts 178°
2026-05-05 18:21 59.33116 18.41002 16942 ft 404 kts 178°
2026-05-05 18:21 59.30355 18.42084 17448 ft 406 kts 178°
2026-05-05 18:22 59.27576 18.43172 17959 ft 407 kts 179°
2026-05-05 18:22 59.24795 18.44263 18411 ft 409 kts 179°
2026-05-05 18:22 59.21992 18.45362 18821 ft 411 kts 179°
2026-05-05 18:22 59.19175 18.46463 19223 ft 413 kts 179°
2026-05-05 18:23 59.16349 18.47565 19615 ft 416 kts 179°
2026-05-05 18:23 59.13505 18.48674 19979 ft 418 kts 178°
2026-05-05 18:23 59.10640 18.49786 20305 ft 421 kts 178°
2026-05-05 18:23 59.07751 18.50900 20671 ft 424 kts 178°
2026-05-05 18:24 59.04854 18.52016 21051 ft 426 kts 178°
2026-05-05 18:24 59.01949 18.53137 21400 ft 428 kts 178°
2026-05-05 18:24 58.99025 18.54265 21760 ft 429 kts 178°
2026-05-05 18:24 58.96081 18.55329 22107 ft 427 kts 182°
2026-05-05 18:25 58.93154 18.55706 22463 ft 419 kts 190°
2026-05-05 18:25 58.92208 18.55655 22568 ft 416 kts 192°
2026-05-05 18:25 58.87508 18.54138 23141 ft 407 kts 202°
2026-05-05 18:25 58.84750 18.52824 23475 ft 409 kts 202°
2026-05-05 18:26 58.81974 18.51513 23682 ft 411 kts 202°
2026-05-05 18:26 58.79189 18.50213 23843 ft 413 kts 201°
2026-05-05 18:26 58.76422 18.48933 23886 ft 413 kts 201°
2026-05-05 18:26 58.73626 18.47642 23885 ft 413 kts 201°
2026-05-05 18:27 58.70822 18.46346 24075 ft 415 kts 201°
2026-05-05 18:27 58.68006 18.45049 24352 ft 417 kts 201°
2026-05-05 18:27 58.65181 18.43753 24622 ft 418 kts 201°
2026-05-05 18:27 58.62349 18.42456 24883 ft 420 kts 201°
2026-05-05 18:28 58.56648 18.39845 25369 ft 422 kts 201°
2026-05-05 18:28 58.53779 18.38528 25528 ft 425 kts 201°
2026-05-05 18:28 58.50887 18.37198 25738 ft 427 kts 201°
2026-05-05 18:29 58.47992 18.35871 25976 ft 429 kts 201°
2026-05-05 18:29 58.45086 18.34541 26214 ft 430 kts 201°
2026-05-05 18:29 58.43155 18.33661 26427 ft 430 kts 201°
2026-05-05 18:29 58.40250 18.32346 26778 ft 428 kts 201°
2026-05-05 18:30 58.36408 18.30613 27238 ft 427 kts 201°
2026-05-05 18:30 58.33522 18.29314 27586 ft 426 kts 201°
2026-05-05 18:30 58.30636 18.28016 27929 ft 425 kts 201°
2026-05-05 18:30 58.28696 18.27143 28114 ft 424 kts 200°
2026-05-05 18:31 58.25820 18.25848 28388 ft 425 kts 200°
2026-05-05 18:31 58.22973 18.24572 28678 ft 425 kts 200°
2026-05-05 18:31 58.20091 18.23278 29006 ft 425 kts 200°
2026-05-05 18:31 58.17225 18.21990 29354 ft 424 kts 200°
2026-05-05 18:32 58.14352 18.20700 29702 ft 423 kts 200°
2026-05-05 18:32 58.11499 18.19425 30036 ft 422 kts 200°
2026-05-05 18:32 58.08640 18.18150 30318 ft 421 kts 200°
2026-05-05 18:32 58.05789 18.16874 30601 ft 420 kts 201°
2026-05-05 18:33 58.02950 18.15604 30878 ft 420 kts 200°
2026-05-05 18:33 58.00105 18.14340 31092 ft 420 kts 200°
2026-05-05 18:33 57.97254 18.13080 31311 ft 421 kts 200°
2026-05-05 18:33 57.94407 18.11823 31557 ft 420 kts 200°
2026-05-05 18:34 57.91553 18.10561 31834 ft 420 kts 200°
2026-05-05 18:34 57.88742 18.09320 32114 ft 419 kts 200°
2026-05-05 18:34 57.85904 18.08071 32395 ft 418 kts 200°
2026-05-05 18:34 57.83064 18.06823 32669 ft 418 kts 200°
2026-05-05 18:35 57.80238 18.05582 32937 ft 417 kts 200°
2026-05-05 18:35 57.77417 18.04345 33201 ft 417 kts 200°
2026-05-05 18:35 57.74589 18.03112 33464 ft 416 kts 200°
2026-05-05 18:35 57.71762 18.01882 33632 ft 417 kts 200°
2026-05-05 18:36 57.68935 18.00649 33848 ft 417 kts 200°
2026-05-05 18:36 57.66099 17.99413 34053 ft 417 kts 200°
2026-05-05 18:36 57.63270 17.98181 34256 ft 418 kts 200°
2026-05-05 18:36 57.60473 17.96964 34448 ft 418 kts 200°
2026-05-05 18:37 57.57639 17.95733 34643 ft 418 kts 200°
2026-05-05 18:37 57.54807 17.94501 34825 ft 418 kts 200°
2026-05-05 18:37 57.51970 17.93272 35005 ft 419 kts 200°
2026-05-05 18:37 57.49131 17.92047 35181 ft 419 kts 200°
2026-05-05 18:38 57.46289 17.90822 35355 ft 419 kts 200°
2026-05-05 18:38 57.43446 17.89598 35526 ft 419 kts 200°
2026-05-05 18:38 57.40616 17.88381 35686 ft 419 kts 199°
2026-05-05 18:38 57.37762 17.87160 35840 ft 420 kts 199°
2026-05-05 18:39 57.34932 17.85953 35995 ft 420 kts 199°
2026-05-05 18:39 57.32073 17.84739 36142 ft 420 kts 199°
2026-05-05 18:39 57.29215 17.83531 36286 ft 420 kts 199°
2026-05-05 18:39 57.26369 17.82326 36431 ft 421 kts 199°
2026-05-05 18:40 57.23518 17.81112 36569 ft 421 kts 199°
2026-05-05 18:40 57.20661 17.79892 36671 ft 421 kts 199°
2026-05-05 18:40 57.17803 17.78673 36835 ft 421 kts 199°
2026-05-05 18:40 57.14950 17.77459 36908 ft 422 kts 199°
2026-05-05 18:41 57.09238 17.75040 36927 ft 425 kts 199°
2026-05-05 18:41 57.03475 17.72625 36927 ft 425 kts 199°
2026-05-05 18:42 56.97710 17.70211 36918 ft 425 kts 199°
2026-05-05 18:42 56.91939 17.67802 36918 ft 426 kts 199°
2026-05-05 18:43 56.86150 17.65387 36927 ft 427 kts 199°
2026-05-05 18:43 56.80353 17.62975 36928 ft 427 kts 199°
2026-05-05 18:44 56.74601 17.60589 36928 ft 427 kts 199°
2026-05-05 18:44 56.68802 17.58192 36929 ft 427 kts 199°
2026-05-05 18:45 56.63000 17.55807 36892 ft 427 kts 198°
2026-05-05 18:45 56.57198 17.53422 36902 ft 428 kts 198°
2026-05-05 18:46 56.51387 17.51048 36914 ft 428 kts 198°
2026-05-05 18:46 56.45565 17.48689 36921 ft 429 kts 198°
2026-05-05 18:47 56.39743 17.46321 36895 ft 429 kts 198°
2026-05-05 18:47 56.33926 17.43954 36901 ft 429 kts 198°
2026-05-05 18:48 56.28246 17.40947 36918 ft 422 kts 206°
2026-05-05 18:48 56.22807 17.36980 36933 ft 421 kts 207°
2026-05-05 18:49 56.17381 17.33025 36929 ft 421 kts 207°
2026-05-05 18:49 56.11991 17.29080 36906 ft 421 kts 207°
2026-05-05 18:50 56.06386 17.25906 36905 ft 430 kts 193°
2026-05-05 18:50 56.00437 17.24478 36884 ft 432 kts 192°
2026-05-05 18:51 55.94465 17.23117 36889 ft 433 kts 192°
2026-05-05 18:51 55.88481 17.21764 36880 ft 434 kts 192°
2026-05-05 18:52 55.82496 17.20405 36893 ft 434 kts 193°
2026-05-05 18:52 55.76510 17.19026 36903 ft 434 kts 193°
2026-05-05 18:53 55.70516 17.17661 36913 ft 434 kts 192°
2026-05-05 18:53 55.64451 17.17255 36922 ft 444 kts 178°
2026-05-05 18:54 55.58481 17.20487 36905 ft 458 kts 161°
2026-05-05 18:54 55.52693 17.25190 36908 ft 458 kts 161°
2026-05-05 18:55 55.46887 17.29858 36916 ft 459 kts 161°
2026-05-05 18:55 55.41076 17.34515 36919 ft 459 kts 161°
2026-05-05 18:56 55.35257 17.39174 36926 ft 459 kts 161°
2026-05-05 18:56 55.29424 17.43818 36898 ft 460 kts 162°
2026-05-05 18:57 55.23602 17.48444 36915 ft 460 kts 162°
2026-05-05 18:57 55.17772 17.53048 36924 ft 460 kts 162°
2026-05-05 18:58 55.11912 17.57547 36932 ft 459 kts 162°
2026-05-05 18:58 55.06049 17.62007 36933 ft 459 kts 162°
2026-05-05 18:59 55.00188 17.66455 36906 ft 459 kts 163°
2026-05-05 18:59 54.94343 17.70930 36906 ft 460 kts 162°
2026-05-05 19:00 54.88548 17.75514 36914 ft 461 kts 161°
2026-05-05 19:00 54.82720 17.80142 36920 ft 461 kts 162°
2026-05-05 19:01 54.76849 17.84777 36925 ft 461 kts 162°
2026-05-05 19:01 54.71032 17.89305 36929 ft 461 kts 162°
2026-05-05 19:02 54.65180 17.93814 36930 ft 461 kts 162°
2026-05-05 19:02 54.59320 17.98328 36932 ft 461 kts 162°
2026-05-05 19:03 54.53462 18.02850 36914 ft 461 kts 162°
2026-05-05 19:03 54.47607 18.07353 36914 ft 461 kts 162°
2026-05-05 19:04 54.41747 18.11838 36916 ft 461 kts 162°
2026-05-05 19:04 54.35891 18.16301 36908 ft 461 kts 162°
2026-05-05 19:05 54.30024 18.20763 36922 ft 461 kts 162°
2026-05-05 19:05 54.24153 18.25193 36923 ft 460 kts 163°
2026-05-05 19:06 54.18287 18.29562 36927 ft 460 kts 163°
2026-05-05 19:06 54.12407 18.33940 36922 ft 460 kts 162°
2026-05-05 19:07 54.06536 18.38315 36931 ft 460 kts 162°
2026-05-05 19:07 54.00716 18.42627 36935 ft 459 kts 162°
2026-05-05 19:08 53.94831 18.46970 36935 ft 458 kts 162°
2026-05-05 19:08 53.88995 18.51261 36932 ft 457 kts 162°
2026-05-05 19:09 53.83154 18.55557 36926 ft 457 kts 162°
2026-05-05 19:09 53.77369 18.59797 36885 ft 456 kts 162°
2026-05-05 19:10 53.71533 18.64047 36893 ft 457 kts 162°
2026-05-05 19:10 53.65695 18.68297 36897 ft 457 kts 162°
2026-05-05 19:11 53.59853 18.72538 36904 ft 457 kts 162°
2026-05-05 19:11 53.54012 18.76765 36899 ft 457 kts 162°
2026-05-05 19:12 53.48045 18.80296 36885 ft 453 kts 168°
2026-05-05 19:12 53.42035 18.83461 36896 ft 453 kts 168°
2026-05-05 19:13 53.36016 18.86631 36878 ft 453 kts 167°
2026-05-05 19:13 53.30041 18.89775 36887 ft 453 kts 167°
2026-05-05 19:14 53.24027 18.92925 36883 ft 453 kts 167°
2026-05-05 19:14 53.18019 18.96057 36858 ft 453 kts 167°
2026-05-05 19:15 53.12009 18.99180 36861 ft 453 kts 167°
2026-05-05 19:15 53.05986 19.02306 36865 ft 453 kts 167°
2026-05-05 19:16 52.99965 19.05424 36858 ft 453 kts 167°
2026-05-05 19:16 52.93936 19.08521 36828 ft 453 kts 167°
2026-05-05 19:17 52.87915 19.11618 36842 ft 453 kts 167°
2026-05-05 19:17 52.81903 19.14697 36846 ft 453 kts 167°
2026-05-05 19:18 52.76890 19.17252 36842 ft 453 kts 167°
2026-05-05 19:18 52.69893 19.20821 36845 ft 453 kts 167°
2026-05-05 19:19 52.63870 19.23895 36820 ft 453 kts 167°
2026-05-05 19:19 52.58824 19.26451 36830 ft 453 kts 167°
2026-05-05 19:20 52.52805 19.29483 36832 ft 452 kts 167°
2026-05-05 19:20 52.46788 19.32519 36830 ft 452 kts 167°
2026-05-05 19:21 52.40809 19.35525 36822 ft 452 kts 167°
2026-05-05 19:21 52.34762 19.38548 36814 ft 452 kts 167°
2026-05-05 19:22 52.28792 19.41531 36821 ft 451 kts 166°
2026-05-05 19:22 52.22792 19.44528 36818 ft 451 kts 167°
2026-05-05 19:23 52.16750 19.47527 36813 ft 450 kts 167°
2026-05-05 19:23 52.10753 19.50501 36801 ft 450 kts 166°
2026-05-05 19:24 52.04766 19.53460 36803 ft 450 kts 166°
2026-05-05 19:24 51.98826 19.56395 36799 ft 449 kts 166°
2026-05-05 19:25 51.92841 19.59329 36796 ft 449 kts 167°
2026-05-05 19:25 51.86866 19.62245 36792 ft 449 kts 166°
2026-05-05 19:26 51.80886 19.65168 36788 ft 448 kts 166°
2026-05-05 19:26 51.74937 19.68193 36783 ft 449 kts 165°
2026-05-05 19:27 51.69003 19.71390 36793 ft 449 kts 165°
2026-05-05 19:27 51.63076 19.74569 36779 ft 449 kts 165°
2026-05-05 19:28 51.57124 19.77698 36779 ft 449 kts 165°
2026-05-05 19:28 51.51171 19.80786 36776 ft 449 kts 165°
2026-05-05 19:29 51.45226 19.83884 36780 ft 449 kts 165°
2026-05-05 19:29 51.39278 19.86995 36786 ft 450 kts 165°
2026-05-05 19:30 51.33322 19.90086 36794 ft 450 kts 165°
2026-05-05 19:30 51.27378 19.93172 36792 ft 450 kts 165°
2026-05-05 19:31 51.21460 19.96250 36809 ft 450 kts 165°
2026-05-05 19:31 51.15469 19.99333 36814 ft 449 kts 165°
2026-05-05 19:32 51.09556 20.02357 36818 ft 449 kts 165°
2026-05-05 19:32 51.03631 20.05384 36816 ft 449 kts 165°
2026-05-05 19:33 50.97695 20.08414 36820 ft 448 kts 165°
2026-05-05 19:33 50.91764 20.11433 36824 ft 448 kts 165°
2026-05-05 19:34 50.85826 20.14450 36823 ft 448 kts 165°
2026-05-05 19:35 50.76915 20.18964 36822 ft 448 kts 165°
2026-05-05 19:35 50.70974 20.21970 36820 ft 448 kts 165°
2026-05-05 19:36 50.65045 20.24948 36826 ft 448 kts 165°
2026-05-05 19:36 50.59166 20.28211 36827 ft 449 kts 162°
2026-05-05 19:37 50.53387 20.31766 36830 ft 449 kts 161°
2026-05-05 19:37 50.47572 20.35325 36819 ft 448 kts 161°
2026-05-05 19:38 50.41733 20.38785 36822 ft 448 kts 162°
2026-05-05 19:38 50.35905 20.42193 36824 ft 448 kts 162°
2026-05-05 19:39 50.30069 20.45616 36827 ft 448 kts 162°
2026-05-05 19:39 50.24234 20.49037 36833 ft 448 kts 162°
2026-05-05 19:40 50.18395 20.52445 36831 ft 448 kts 162°
2026-05-05 19:40 50.12559 20.55849 36830 ft 448 kts 162°
2026-05-05 19:41 50.06722 20.59248 36833 ft 448 kts 162°
2026-05-05 19:41 50.00882 20.62647 36842 ft 448 kts 162°
2026-05-05 19:42 49.95044 20.66025 36845 ft 448 kts 162°
2026-05-05 19:42 49.89196 20.69397 36860 ft 448 kts 162°
2026-05-05 19:43 49.83352 20.72758 36868 ft 448 kts 162°
2026-05-05 19:43 49.77507 20.76112 36866 ft 448 kts 162°
2026-05-05 19:44 49.71668 20.79463 36861 ft 448 kts 161°
2026-05-05 19:44 49.65819 20.82804 36857 ft 448 kts 162°
2026-05-05 19:45 49.60001 20.86111 36881 ft 448 kts 162°
2026-05-05 19:45 49.54141 20.89439 36884 ft 448 kts 162°
2026-05-05 19:46 49.48290 20.92744 36887 ft 449 kts 162°
2026-05-05 19:46 49.42428 20.96058 36888 ft 449 kts 162°
2026-05-05 19:47 49.36567 20.99376 36884 ft 449 kts 161°
2026-05-05 19:47 49.30614 21.02156 36889 ft 447 kts 168°
2026-05-05 19:48 49.24565 21.04354 36889 ft 447 kts 168°
2026-05-05 19:48 49.18512 21.06562 36895 ft 447 kts 168°
2026-05-05 19:49 49.12463 21.08766 36894 ft 447 kts 168°
2026-05-05 19:49 49.06402 21.10921 36897 ft 447 kts 169°
2026-05-05 19:50 49.00333 21.12971 36901 ft 447 kts 169°
2026-05-05 19:50 48.94252 21.15010 36898 ft 447 kts 169°
2026-05-05 19:51 48.88179 21.17066 36906 ft 447 kts 169°
2026-05-05 19:51 48.82137 21.19119 36919 ft 447 kts 169°
2026-05-05 19:52 48.76063 21.21175 36933 ft 447 kts 169°
2026-05-05 19:52 48.69989 21.23214 36934 ft 447 kts 169°
2026-05-05 19:53 48.63912 21.25260 36925 ft 447 kts 169°
2026-05-05 19:53 48.57840 21.27298 36923 ft 447 kts 169°
2026-05-05 19:54 48.51839 21.29826 36914 ft 449 kts 158°
2026-05-05 19:54 48.46357 21.34370 36885 ft 451 kts 151°
2026-05-05 19:55 48.40936 21.39125 36887 ft 451 kts 151°
2026-05-05 19:55 48.35512 21.43851 36881 ft 451 kts 151°
2026-05-05 19:56 48.30074 21.48576 36886 ft 451 kts 151°
2026-05-05 19:56 48.24631 21.53296 36890 ft 451 kts 151°
2026-05-05 19:57 48.19224 21.57975 36911 ft 452 kts 151°
2026-05-05 19:57 48.13785 21.62687 36918 ft 452 kts 151°
2026-05-05 19:58 48.08346 21.67395 36922 ft 452 kts 151°
2026-05-05 19:58 48.02861 21.72130 36924 ft 452 kts 151°
2026-05-05 19:59 47.97446 21.76771 36920 ft 452 kts 151°
2026-05-05 19:59 47.91984 21.81428 36920 ft 452 kts 151°
2026-05-05 20:00 47.86525 21.86089 36917 ft 452 kts 151°
2026-05-05 20:00 47.81056 21.90748 36908 ft 453 kts 151°
2026-05-05 20:01 47.75586 21.95399 36922 ft 453 kts 151°
2026-05-05 20:01 47.70114 22.00041 36916 ft 453 kts 151°
2026-05-05 20:02 47.64635 22.04666 36916 ft 453 kts 151°
2026-05-05 20:02 47.59146 22.09285 36918 ft 453 kts 151°
2026-05-05 20:03 47.53370 22.12970 36919 ft 452 kts 161°
2026-05-05 20:03 47.47468 22.16185 36920 ft 452 kts 161°
2026-05-05 20:04 47.41581 22.19400 36926 ft 452 kts 160°
2026-05-05 20:04 47.35665 22.22607 36923 ft 453 kts 161°
2026-05-05 20:05 47.29738 22.25802 36928 ft 454 kts 161°
2026-05-05 20:05 47.24811 22.28461 36935 ft 454 kts 161°
2026-05-05 20:06 47.18880 22.31660 36950 ft 454 kts 161°
2026-05-05 20:06 47.12940 22.34852 36962 ft 454 kts 161°
2026-05-05 20:07 47.06996 22.38036 36950 ft 455 kts 160°
2026-05-05 20:07 47.01055 22.41213 36965 ft 455 kts 161°
2026-05-05 20:08 46.95101 22.44390 36966 ft 455 kts 161°
2026-05-05 20:08 46.89148 22.47555 36984 ft 455 kts 161°
2026-05-05 20:09 46.83196 22.50724 36978 ft 455 kts 161°
2026-05-05 20:09 46.77241 22.53878 36998 ft 456 kts 160°
2026-05-05 20:10 46.71266 22.57032 36988 ft 457 kts 161°
2026-05-05 20:10 46.65271 22.60125 36999 ft 457 kts 161°
2026-05-05 20:11 46.59268 22.63188 37004 ft 457 kts 161°
2026-05-05 20:11 46.53253 22.66255 37003 ft 458 kts 161°
2026-05-05 20:12 46.47241 22.69341 37010 ft 458 kts 161°
2026-05-05 20:12 46.41269 22.72395 36997 ft 459 kts 161°
2026-05-05 20:13 46.35235 22.75476 37013 ft 460 kts 161°
2026-05-05 20:13 46.29196 22.78549 36999 ft 460 kts 161°
2026-05-05 20:14 46.23153 22.81603 37007 ft 460 kts 161°
2026-05-05 20:14 46.17106 22.84650 37011 ft 460 kts 161°
2026-05-05 20:15 46.11061 22.87705 37005 ft 461 kts 161°
2026-05-05 20:15 46.04991 22.90754 36993 ft 462 kts 161°
2026-05-05 20:16 45.98923 22.93798 36997 ft 462 kts 161°
2026-05-05 20:16 45.92846 22.96843 37001 ft 463 kts 161°
2026-05-05 20:17 45.86766 22.99884 37003 ft 463 kts 161°
2026-05-05 20:17 45.80690 23.02920 37008 ft 463 kts 161°
2026-05-05 20:18 45.74595 23.05955 37011 ft 464 kts 161°
2026-05-05 20:18 45.68487 23.08985 37008 ft 465 kts 161°
2026-05-05 20:19 45.62367 23.12013 37026 ft 466 kts 161°
2026-05-05 20:19 45.56243 23.15041 37030 ft 466 kts 161°
2026-05-05 20:20 45.50121 23.18059 37051 ft 466 kts 161°
2026-05-05 20:20 45.43986 23.21074 37044 ft 466 kts 161°
2026-05-05 20:21 45.37854 23.24087 37034 ft 466 kts 161°
2026-05-05 20:21 45.31715 23.27083 37038 ft 467 kts 161°
2026-05-05 20:22 45.25566 23.30085 37033 ft 467 kts 161°
2026-05-05 20:22 45.19428 23.33087 37031 ft 467 kts 161°
2026-05-05 20:23 45.13276 23.36079 37024 ft 467 kts 162°
2026-05-05 20:23 45.07170 23.39216 37020 ft 467 kts 158°
2026-05-05 20:24 45.01236 23.42954 37024 ft 467 kts 155°
2026-05-05 20:24 44.95344 23.46858 37019 ft 467 kts 155°
2026-05-05 20:25 44.89448 23.50610 37012 ft 468 kts 156°
2026-05-05 20:25 44.83444 23.54315 37009 ft 469 kts 156°
2026-05-05 20:26 44.77501 23.57973 37004 ft 469 kts 156°
2026-05-05 20:26 44.71529 23.61662 37000 ft 469 kts 156°
2026-05-05 20:27 44.65546 23.65355 36992 ft 469 kts 157°
2026-05-05 20:27 44.59564 23.69044 36998 ft 470 kts 156°
2026-05-05 20:28 44.53583 23.72717 36993 ft 470 kts 156°
2026-05-05 20:28 44.47579 23.76399 36992 ft 471 kts 156°
2026-05-05 20:29 44.41563 23.80087 36985 ft 471 kts 156°
2026-05-05 20:29 44.35556 23.83765 37001 ft 471 kts 157°
2026-05-05 20:30 44.29540 23.87430 36992 ft 472 kts 156°
2026-05-05 20:30 44.23512 23.91091 36992 ft 473 kts 156°
2026-05-05 20:31 44.17479 23.94753 36991 ft 473 kts 156°
2026-05-05 20:31 44.11473 23.98380 36995 ft 473 kts 156°
2026-05-05 20:32 44.05426 24.02023 37007 ft 474 kts 156°
2026-05-05 20:32 43.99373 24.05668 37002 ft 474 kts 156°
2026-05-05 20:33 43.93314 24.09316 36991 ft 475 kts 157°
2026-05-05 20:33 43.87249 24.12952 36999 ft 475 kts 157°
2026-05-05 20:34 43.81175 24.16587 37014 ft 476 kts 156°
2026-05-05 20:34 43.75095 24.20221 37010 ft 476 kts 156°
2026-05-05 20:35 43.69164 24.24283 37000 ft 476 kts 145°
2026-05-05 20:35 43.64204 24.30183 36998 ft 475 kts 135°
2026-05-05 20:36 43.59454 24.36530 37003 ft 475 kts 135°
2026-05-05 20:36 43.54687 24.42859 37011 ft 475 kts 135°
2026-05-05 20:37 43.49914 24.49171 37008 ft 476 kts 135°
2026-05-05 20:37 43.45141 24.55487 37006 ft 476 kts 135°
2026-05-05 20:38 43.40362 24.61812 37020 ft 476 kts 135°
2026-05-05 20:38 43.35569 24.68120 37018 ft 477 kts 135°
2026-05-05 20:39 43.30782 24.74412 37024 ft 477 kts 135°
2026-05-05 20:39 43.25987 24.80707 37025 ft 477 kts 135°
2026-05-05 20:40 43.21190 24.86986 37046 ft 477 kts 135°
2026-05-05 20:40 43.16390 24.93249 37029 ft 477 kts 135°
2026-05-05 20:41 43.11607 24.99477 37024 ft 477 kts 135°
2026-05-05 20:41 43.06796 25.05733 37028 ft 477 kts 135°
2026-05-05 20:42 43.01989 25.11995 37044 ft 477 kts 135°
2026-05-05 20:42 42.97181 25.18237 37031 ft 476 kts 135°
2026-05-05 20:42 42.94777 25.21346 36487 ft 476 kts 135°
2026-05-05 20:43 42.92375 25.24445 35737 ft 477 kts 135°
2026-05-05 20:43 42.89952 25.27565 34993 ft 479 kts 135°
2026-05-05 20:43 42.87517 25.30698 34211 ft 482 kts 135°
2026-05-05 20:43 42.85068 25.33850 33323 ft 486 kts 135°
2026-05-05 20:44 42.82597 25.37029 32444 ft 488 kts 135°
2026-05-05 20:44 42.80154 25.40169 31574 ft 491 kts 135°
2026-05-05 20:44 42.77661 25.43371 30732 ft 493 kts 135°
2026-05-05 20:44 42.75165 25.46573 29825 ft 495 kts 135°
2026-05-05 20:45 42.70139 25.52999 28266 ft 496 kts 134°
2026-05-05 20:45 42.67623 25.56214 28024 ft 497 kts 134°
2026-05-05 20:45 42.65104 25.59429 28055 ft 497 kts 134°
2026-05-05 20:46 42.60059 25.65852 28042 ft 498 kts 135°
2026-05-05 20:46 42.54992 25.72288 28041 ft 499 kts 135°
2026-05-05 20:47 42.49932 25.78704 28046 ft 498 kts 135°
2026-05-05 20:47 42.44862 25.85117 28046 ft 499 kts 135°
2026-05-05 20:48 42.39781 25.91515 28047 ft 499 kts 135°
2026-05-05 20:48 42.34700 25.97901 28053 ft 497 kts 135°
2026-05-05 20:49 42.29663 26.04234 28050 ft 498 kts 135°
2026-05-05 20:49 42.24553 26.10633 28049 ft 498 kts 135°
2026-05-05 20:50 42.20324 26.15910 28052 ft 499 kts 135°
2026-05-05 20:50 42.14406 26.23255 28054 ft 495 kts 135°
2026-05-05 20:51 42.09338 26.29533 28054 ft 495 kts 135°
2026-05-05 20:51 42.04259 26.35801 28052 ft 496 kts 135°
2026-05-05 20:52 41.99165 26.42080 28056 ft 495 kts 135°
2026-05-05 20:52 41.94952 26.47269 28062 ft 494 kts 135°
2026-05-05 20:53 41.89883 26.53496 28068 ft 494 kts 135°
2026-05-05 20:53 41.85133 26.60119 28069 ft 491 kts 127°
2026-05-05 20:54 41.80801 26.67148 28062 ft 487 kts 127°
2026-05-05 20:54 41.78645 26.70636 27392 ft 483 kts 127°
2026-05-05 20:54 41.76530 26.74047 27171 ft 467 kts 127°
2026-05-05 20:55 41.74549 26.77403 26811 ft 453 kts 119°
2026-05-05 20:55 41.73013 26.80981 26678 ft 436 kts 116°
2026-05-05 20:55 41.71547 26.84463 26564 ft 420 kts 116°
2026-05-05 20:55 41.70133 26.87801 26500 ft 406 kts 116°
2026-05-05 20:56 41.68765 26.91029 26410 ft 392 kts 116°
2026-05-05 20:56 41.67447 26.94140 26323 ft 378 kts 116°
2026-05-05 20:56 41.66173 26.97150 26231 ft 365 kts 116°
2026-05-05 20:56 41.64944 27.00058 26158 ft 353 kts 116°
2026-05-05 20:57 41.63755 27.02879 26071 ft 345 kts 116°
2026-05-05 20:57 41.62586 27.05655 26014 ft 343 kts 116°
2026-05-05 20:57 41.61418 27.08435 25926 ft 342 kts 116°
2026-05-05 20:57 41.60249 27.11209 25851 ft 342 kts 116°
2026-05-05 20:58 41.59079 27.13980 25782 ft 341 kts 116°
2026-05-05 20:58 41.57912 27.16734 25707 ft 341 kts 116°
2026-05-05 20:58 41.56742 27.19487 25645 ft 339 kts 116°
2026-05-05 20:58 41.55584 27.22211 25564 ft 337 kts 116°
2026-05-05 20:59 41.54428 27.24928 25501 ft 336 kts 116°
2026-05-05 20:59 41.53272 27.27639 25429 ft 335 kts 116°
2026-05-05 20:59 41.52117 27.30343 25360 ft 335 kts 116°
2026-05-05 20:59 41.50969 27.33035 25282 ft 335 kts 116°
2026-05-05 21:00 41.49818 27.35736 25202 ft 335 kts 116°
2026-05-05 21:00 41.48664 27.38434 25138 ft 334 kts 116°
2026-05-05 21:00 41.47513 27.41126 25060 ft 334 kts 116°
2026-05-05 21:00 41.46363 27.43814 25007 ft 334 kts 116°
2026-05-05 21:01 41.45228 27.46459 24927 ft 333 kts 116°
2026-05-05 21:01 41.44064 27.49173 24865 ft 332 kts 117°
2026-05-05 21:01 41.42933 27.51803 24794 ft 330 kts 117°
2026-05-05 21:01 41.41794 27.54451 24726 ft 329 kts 117°
2026-05-05 21:02 41.40660 27.57091 24658 ft 328 kts 117°
2026-05-05 21:02 41.39525 27.59732 24580 ft 328 kts 117°
2026-05-05 21:02 41.38392 27.62366 24520 ft 327 kts 117°
2026-05-05 21:02 41.37261 27.64991 24452 ft 327 kts 117°
2026-05-05 21:03 41.36124 27.67625 24383 ft 327 kts 117°
2026-05-05 21:03 41.34991 27.70241 24313 ft 326 kts 117°
2026-05-05 21:03 41.33856 27.72857 24244 ft 326 kts 117°
2026-05-05 21:03 41.32724 27.75469 24176 ft 326 kts 117°
2026-05-05 21:04 41.31594 27.78081 24109 ft 326 kts 117°
2026-05-05 21:04 41.30464 27.80696 24042 ft 325 kts 117°
2026-05-05 21:04 41.29335 27.83304 23974 ft 325 kts 117°
2026-05-05 21:04 41.28208 27.85902 23906 ft 324 kts 117°
2026-05-05 21:05 41.27081 27.88506 23665 ft 325 kts 117°
2026-05-05 21:05 41.25953 27.91106 23209 ft 325 kts 117°
2026-05-05 21:05 41.24822 27.93700 22768 ft 325 kts 117°
2026-05-05 21:05 41.23686 27.96299 22333 ft 325 kts 117°
2026-05-05 21:06 41.22552 27.98897 21916 ft 325 kts 117°
2026-05-05 21:06 41.21415 28.01501 21482 ft 326 kts 117°
2026-05-05 21:06 41.20285 28.04091 21053 ft 327 kts 117°
2026-05-05 21:06 41.19140 28.06711 20629 ft 328 kts 117°
2026-05-05 21:07 41.17992 28.09331 20183 ft 330 kts 117°
2026-05-05 21:07 41.16830 28.11971 19748 ft 331 kts 117°
2026-05-05 21:07 41.15667 28.14614 19309 ft 333 kts 117°
2026-05-05 21:07 41.14500 28.17274 18868 ft 334 kts 117°
2026-05-05 21:08 41.13328 28.19949 18423 ft 336 kts 117°
2026-05-05 21:08 41.12153 28.22633 17930 ft 338 kts 117°
2026-05-05 21:08 41.10971 28.25328 17473 ft 338 kts 117°
2026-05-05 21:08 41.09802 28.27984 17033 ft 338 kts 117°
2026-05-05 21:09 41.08617 28.30670 16590 ft 338 kts 117°
2026-05-05 21:09 41.07426 28.33369 16139 ft 339 kts 116°
2026-05-05 21:09 41.06237 28.36065 15687 ft 339 kts 116°
2026-05-05 21:09 41.05043 28.38764 15245 ft 340 kts 116°
2026-05-05 21:10 41.03844 28.41476 14790 ft 341 kts 116°
2026-05-05 21:10 41.02646 28.44187 14332 ft 342 kts 116°
2026-05-05 21:10 41.01440 28.46912 13882 ft 343 kts 116°
2026-05-05 21:10 41.00231 28.49637 13386 ft 343 kts 116°
2026-05-05 21:11 40.99023 28.52353 12924 ft 342 kts 116°
2026-05-05 21:11 40.97820 28.55058 12478 ft 341 kts 116°
2026-05-05 21:11 40.96616 28.57759 12025 ft 340 kts 116°
2026-05-05 21:11 40.95419 28.60440 11580 ft 338 kts 116°
2026-05-05 21:12 40.94224 28.63120 11125 ft 337 kts 116°
2026-05-05 21:12 40.93036 28.65786 10685 ft 336 kts 116°
2026-05-05 21:12 40.91846 28.68451 10247 ft 336 kts 116°
2026-05-05 21:12 40.90660 28.71117 9774 ft 335 kts 116°
2026-05-05 21:13 40.89483 28.73763 9310 ft 333 kts 116°
2026-05-05 21:13 40.88308 28.76391 8870 ft 331 kts 117°
2026-05-05 21:13 40.87135 28.79008 8367 ft 330 kts 117°
2026-05-05 21:13 40.85972 28.81603 7927 ft 328 kts 117°
2026-05-05 21:14 40.84816 28.84185 7494 ft 325 kts 117°
2026-05-05 21:14 40.83668 28.86747 7066 ft 323 kts 117°
2026-05-05 21:14 40.82527 28.89289 6637 ft 320 kts 117°
2026-05-05 21:14 40.81398 28.91792 6405 ft 310 kts 117°
2026-05-05 21:15 40.80335 28.94129 6614 ft 283 kts 116°
2026-05-05 21:15 40.79397 28.96309 6493 ft 269 kts 110°
2026-05-05 21:15 40.78926 28.98613 6099 ft 252 kts 92°
2026-05-05 21:15 40.78977 29.00828 5770 ft 234 kts 76°
2026-05-05 21:16 40.79444 29.02810 5443 ft 220 kts 61°
2026-05-05 21:16 40.80089 29.04548 5131 ft 206 kts 60°
2026-05-05 21:16 40.80689 29.06168 4832 ft 182 kts 60°
2026-05-05 21:16 40.81213 29.07578 4530 ft 164 kts 60°
2026-05-05 21:17 40.81699 29.08886 4273 ft 151 kts 59°
2026-05-05 21:17 40.82146 29.10087 4042 ft 145 kts 59°
2026-05-05 21:17 40.82594 29.11290 3820 ft 144 kts 59°
2026-05-05 21:17 40.83028 29.12459 3599 ft 143 kts 60°
2026-05-05 21:18 40.83468 29.13644 3372 ft 143 kts 60°
2026-05-05 21:18 40.83905 29.14823 3154 ft 143 kts 60°
2026-05-05 21:18 40.84344 29.16007 2915 ft 144 kts 60°
2026-05-05 21:18 40.84784 29.17195 2691 ft 144 kts 61°
2026-05-05 21:19 40.85224 29.18384 2464 ft 144 kts 61°
2026-05-05 21:19 40.85666 29.19577 2238 ft 144 kts 62°
2026-05-05 21:19 40.86106 29.20766 2006 ft 144 kts 62°
2026-05-05 21:19 40.86545 29.21953 1774 ft 144 kts 62°
2026-05-05 21:20 40.86983 29.23140 1538 ft 143 kts 63°
2026-05-05 21:20 40.87418 29.24317 1315 ft 142 kts 63°
2026-05-05 21:20 40.87852 29.25490 1085 ft 141 kts 63°
2026-05-05 21:20 40.88276 29.26641 855 ft 138 kts 63°
2026-05-05 21:21 40.88694 29.27768 656 ft 135 kts 63°
2026-05-05 21:21 40.89103 29.28875 455 ft 134 kts 62°
2026-05-05 21:21 40.89508 29.29968 318 ft 124 kts 63°
2026-05-05 21:21 40.89800 29.30768 322 ft 81 kts 64°
2026-05-05 21:22 40.90008 29.31331 319 ft 47 kts 64°
2026-05-05 21:22 40.90098 29.31538 320 ft 18 kts 56°
2026-05-05 21:22 40.90172 29.31637 321 ft 11 kts 34°
2026-05-05 21:22 40.90239 29.31697 321 ft 12 kts 34°
2026-05-05 21:23 40.90302 29.31756 320 ft 8 kts 34°
2026-05-05 21:23 40.90354 29.31798 321 ft 9 kts 32°
2026-05-05 21:23 40.90401 29.31858 321 ft 10 kts 51°
2026-05-05 21:23 40.90444 29.31942 321 ft 12 kts 59°
2026-05-05 21:24 40.90518 29.31976 321 ft 12 kts 337°
2026-05-05 21:24 40.90579 29.31940 321 ft 8 kts 335°
2026-05-05 21:24 40.90634 29.31902 320 ft 10 kts 330°
2026-05-05 21:24 40.90691 29.31863 321 ft 6 kts 334°
2026-05-05 21:25 40.90708 29.31852 321 ft 0 kts 333°